Regional Weather Roundup
Issued by NWS

Home | Current Version | Previous Version | Graphics & Text | Print | Product List | Glossary On
Versions: 1 2 3 4 5 6 7 8 9 10 11 12 13 14 15 16 17 18 19 20 21 22 23 24 25 26 27 28 29 30 31 32 33 34 35 36 37 38 39 40 41 42 43 44 45 46 47 48 49 50
000
ASUS45 KSLC 070010
RWRUT

UTAH REGIONAL WEATHER ROUNDUP
NATIONAL WEATHER SERVICE SALT LAKE CITY UT
600 PM MDT MON JUL 06 2015

UTZ001>011-023>025-070100-

NORTHERN UTAH

CITY           SKY/WX    TMP DP  RH WIND       PRES   REMARKS
BRIGHAM CITY   SUNNY     84  42  23 N5        30.06S
HILL AFB       PTSUNNY   84  50  30 VRB7      30.08F
LOGAN          SUNNY     76  54  46 N7        30.09F
OGDEN          MOSUNNY   83  49  30 N8        30.05F
PROVO AIRPORT  PTSUNNY   82  46  28 S5        30.07S
SALT LAKE CITY PTSUNNY   80  58  46 SE13      30.05S
VERNAL         CLOUDY    73  49  42 N12       30.11F
WENDOVER       CLOUDY    82  52  34 W12G20    30.06R THUNDER
HEBER CITY     CLOUDY    79  45  29 SW7       30.13S
WEST JORDAN    MOSUNNY   79  59  50 SE12G22   30.10R

$$

UTZ012>022-026-027-070100-

SOUTHERN/CENTRAL UTAH

CITY           SKY/WX    TMP DP  RH WIND       PRES   REMARKS
BLANDING       PTSUNNY   76  49  39 NW10      30.21F
BRYCE CANYON   RAIN      55  52  89 NW9       30.38R FOG
CEDAR CITY     CLOUDY    69  54  58 NE12      30.21F
DELTA          CLOUDY    74  48  39 E18G25    30.13R
HANKSVILLE     CLOUDY    81  45  28 W17       30.09S
MILFORD        LGT RAIN  73  50  44 SW17      30.16F
MOAB/CYNLANDS  PTSUNNY   75  58  55 NW16      30.04R
PRICE          CLOUDY    72  51  47 E8        30.18S
ST GEORGE      CLOUDY    88  50  27 SE15      30.01S
KANAB          CLOUDY    72  63  73 NW8       30.21F

$$

REGIONAL REPORTS     COLORADO/ARIZONA

CITY           SKY/WX    TMP DP  RH WIND       PRES   REMARKS
CRAIG, CO      PTSUNNY   79  50  36 CALM      30.14F
GRAND JUNCTION PTSUNNY   84  41  21 CALM      30.03F
RIFLE          PTSUNNY   81  51  35 CALM      30.09F
MONTROSE       MOSUNNY   84  45  25 W12       30.12F
CORTEZ         PTSUNNY   82  51  34 W18G24    30.12S
PAGE, AZ       CLOUDY    84  47  27 NW8       30.07F
GRAND CANYON   CLOUDY    70  50  49 NW10G21   30.26R
KINGMAN        LGT RAIN  77  63  61 E6        30.05F
FLAGSTAFF      PTSUNNY   72  48  42 VRB3      30.28F

$$

REGIONAL REPORTS    NEVADA/IDAHO/WYOMING

CITY           SKY/WX    TMP DP  RH WIND       PRES   REMARKS
LAS VEGAS, NV  PTSUNNY   96  53  23 SE7       29.87F HX  93
ELY            CLOUDY    71  44  37 S13       30.23R
ELKO           MOSUNNY   87  38  17 W7        30.08F
POCATELLO, ID  MOSUNNY   80  54  40 NW8       30.08F
BURLEY         MOSUNNY   83  50  31 SW3       30.04F
EVANSTON, WY   PTSUNNY   72  46  39 NW16G24   30.24R
ROCK SPRINGS   CLOUDY    74  50  42 SE14      30.17F
KEMMERER       LGT RAIN  55  52  88 N12       30.28F

$$



USA.gov is the U.S. government's official web portal to all federal, state and local government web resources and services.